Williamsport, PA

10:09 AM EST on December 18, 2017 (GMT -0500)
Williamsport Rgnl

Weather History for KIPT - September, 2013

Change the Weather History Date:

Sunday, September 1, 2013

  Actual Average Record
Temperature  
Mean Temperature 77 °F 68 °F  
Max Temperature 85 °F 79 °F 100 °F (1932)
Min Temperature 68 °F 58 °F 45 °F (1946)
Degree Days  
Heating Degree Days 0 1  
Month to date heating degree days 0 1  
Since 1 July heating degree days 5 15  
Cooling Degree Days 12 4  
Month to date cooling degree days 12 4  
Year to date cooling degree days 771 638  
Growing Degree Days 26 (Base 50)    
Moisture  
Dew Point 68 °F    
Average Humidity 78    
Maximum Humidity 97    
Minimum Humidity 59    
Precipitation  
Precipitation 0.50 in 0.13 in 2.06 in (2003)
Month to date precipitation 0.50 0.13  
Year to date precipitation 22.12 27.16  
Sea Level Pressure  
Sea Level Pressure 29.79 in    
Wind  
Wind Speed 2 mph (East)    
Max Wind Speed 16 mph    
Max Gust Speed 29 mph    
Visibility 7 miles    
Events Thunderstorm    
T = Trace of Precipitation, MM = Missing Value Source: NWS Daily Summary

Daily Weather History Graph

Daily Weather History Graph

Search for Another Location

Airport or City:

Trip Planner

Search our weather history database for the weather conditions in past years. The results will help you decide how hot, cold, wet, or windy it might be!

Date:

Astronomy

Sep. 01, 2013 Rise Set
Actual Time 6:34 AM EDT 7:40 PM EDT
Civil Twilight 6:05 AM EDT 8:08 PM EDT
Nautical Twilight 5:32 AM EDT 8:42 PM EDT
Astronomical Twilight 4:56 AM EDT 9:17 PM EDT
Moon 2:52 AM EDT (9/1) 5:17 PM EDT (9/1)
Length of Visible Light 14h 02m
Length of Day
13h 05m
Waning Crescent, 14% of the Moon is Illuminated
Sep 1
Waning Crescent
Sep 5
New
Sep 12
First Quarter
Sep 19
Full
Sep 26
Last Quarter

Hourly Weather History & Observations

Time (EDT) Temp. Heat Index Dew Point Humidity Pressure Visibility Wind Dir Wind Speed Gust Speed Precip Events Conditions
12:54 AM 73.0 °F - 69.1 °F 87% 29.80 in 7.0 mi NW 3.5 mph - N/A   Clear
1:19 AM 71.6 °F - 69.8 °F 94% 29.80 in 2.5 mi Calm Calm - N/A   Clear
1:35 AM 69.8 °F - 69.8 °F 100% 29.80 in 0.8 mi Calm Calm - N/A   Clear
1:48 AM 71.6 °F - 69.8 °F 94% 29.79 in 2.0 mi Calm Calm - N/A   Clear
1:54 AM 71.1 °F - 69.1 °F 93% 29.79 in 4.0 mi NW 3.5 mph - N/A   Clear
2:54 AM 70.0 °F - 68.0 °F 93% 29.78 in 5.0 mi Calm Calm - N/A   Scattered Clouds
3:02 AM 69.8 °F - 68.0 °F 94% 29.79 in 5.0 mi Calm Calm - N/A   Mostly Cloudy
3:15 AM 69.8 °F - 66.2 °F 88% 29.79 in 7.0 mi NNE 3.5 mph - N/A   Scattered Clouds
3:54 AM 70.0 °F - 66.9 °F 90% 29.79 in 8.0 mi Calm Calm - N/A   Mostly Cloudy
4:24 AM 69.8 °F - 66.2 °F 88% 29.80 in 6.0 mi Calm Calm - N/A   Scattered Clouds
4:44 AM 69.8 °F - 66.2 °F 88% 29.80 in 5.0 mi Calm Calm - N/A   Mostly Cloudy
4:54 AM 69.1 °F - 66.9 °F 93% 29.80 in 4.0 mi NW 3.5 mph - N/A   Mostly Cloudy
5:54 AM 70.0 °F - 66.9 °F 90% 29.81 in 8.0 mi Calm Calm - N/A   Overcast
6:54 AM 70.0 °F - 66.9 °F 90% 29.82 in 7.0 mi Calm Calm - N/A   Overcast
7:54 AM 71.1 °F - 68.0 °F 90% 29.82 in 7.0 mi Calm Calm - N/A   Overcast
8:54 AM 72.0 °F - 68.0 °F 87% 29.83 in 7.0 mi Calm Calm - N/A   Overcast
9:54 AM 73.0 °F - 68.0 °F 84% 29.83 in 7.0 mi Calm Calm - N/A   Overcast
10:15 AM 73.4 °F - 68.0 °F 83% 29.85 in 7.0 mi Calm Calm - N/A   Overcast
10:54 AM 75.9 °F - 69.1 °F 79% 29.83 in 10.0 mi Calm Calm - N/A   Mostly Cloudy
11:54 AM 80.1 °F 82.9 °F 69.1 °F 69% 29.82 in 10.0 mi East 3.5 mph - N/A   Partly Cloudy
12:54 PM 81.0 °F 83.8 °F 68.0 °F 65% 29.81 in 9.0 mi Calm Calm - N/A   Scattered Clouds
1:54 PM 82.9 °F 85.8 °F 68.0 °F 60% 29.79 in 9.0 mi East 3.5 mph - N/A   Clear
2:54 PM 82.9 °F 85.8 °F 68.0 °F 60% 29.78 in 9.0 mi Calm Calm - N/A   Clear
3:54 PM 84.0 °F 87.0 °F 68.0 °F 58% 29.77 in 9.0 mi SE 3.5 mph - 0.00 in   Clear
4:54 PM 84.0 °F 87.0 °F 68.0 °F 58% 29.77 in 10.0 mi Variable 3.5 mph - N/A   Partly Cloudy
5:54 PM 82.9 °F 86.5 °F 69.1 °F 63% 29.75 in 10.0 mi SE 4.6 mph - N/A   Clear
6:54 PM 82.9 °F 86.5 °F 69.1 °F 63% 29.75 in 9.0 mi SE 5.8 mph - N/A   Clear
7:54 PM 79.0 °F - 70.0 °F 74% 29.76 in 8.0 mi Calm Calm - N/A   Clear
8:54 PM 77.0 °F - 71.1 °F 82% 29.77 in 7.0 mi ESE 3.5 mph - N/A   Scattered Clouds
9:54 PM 75.0 °F - 70.0 °F 84% 29.79 in 7.0 mi Calm Calm - N/A   Clear
10:54 PM 73.9 °F - 70.0 °F 87% 29.78 in 6.0 mi Calm Calm - N/A   Partly Cloudy
11:50 PM 71.6 °F - 69.8 °F 94% 29.78 in 5.0 mi Calm Calm - N/A Thunderstorm Partly Cloudy
11:54 PM 72.0 °F - 69.1 °F 91% 29.78 in 5.0 mi Calm Calm - N/A Thunderstorm Scattered Clouds